STARLINK-36721, 67916

Orbit data source: Space-Track

STARLINK-36721, 67916 is a payload satellite owned by SpaceX/Seattle (US) in LEO that was launched on Sun, 22 Feb 2026 UTC via an FALCON 9 launch vehicle from the Air Force Eastern Test Range (AFETR). Payload-class satellites include a variety of spacecraft equipped with specific instruments for various scientific and technological missions. These include communications satellites like Starlink; space stations such as the ISS; scientific satellites like the Hubble; Earth observation satellites from companies like Planet Labs, Umbra, and HawkEye 360; GPS; miniature CubeSats for education and research; and military/defense satellites.

Loading next visibility...
Identifier
67916, 2026-036N
Orbit
LEO
Country
Flag of USUS
Related business
Manufacturer
SpaceX/Seattle
Mission
Operational spacecraft
Bus & Motor
STARLINK V2MO, Unknown motor
Mass
575 kg wet, ~530 kg dry
Launch date (UTC)
2026-02-22 (3 weeks ago)
Launch vehicle
FALCON 9
Launch site
Air Force Eastern Test Range (AFETR)
Object type
Payload
Rocket body
Debris
Shape & HBR
Unknown
Radar Cross Section
RCS unknown

Expand to show TLE details & history
Last TLE update: 11 hours ago

TLE from 11 hours ago
0 STARLINK-36721
1 67916U 26036N   26071.85996092 -.00829466  00000-0 -47457-2 0  9996
2 67916  42.9982 230.2595 0002814 242.9338 117.1246 15.80036897  4178
Epoch: 2026-03-12T20:38Z
TLE epoch observation values (Epoch: 2026-03-12T20:38:20.623Z)
Latitude
-0.00002°
Longitude
110.16976°
Altitude
330.967 km
Speed
7.711 km/s
True Right ascension
15h 21m 02s
True Declination
0° 00' 00"
Sunlit
Object was in full shadow at epoch
Visualization orbit readout
Latitude
Unknown
Longitude
Unknown
Altitude
Unknown
Speed
Unknown
Apparent Right ascension
Unknown
Apparent Declination
Unknown
Sunlit
N/A
Visualization observer readout
Local Sidereal Time
12:21:53
Azimuth
Unknown
Elevation
Unknown
Doppler factor
Unknown
Orbital elements
Apogee altitude
334.214 km
Perigee altitude
330.437 km
Semi-major axis
6,710.463 km
Eccentricity
0.00028
Inclination
42.9982°
RAAN
230.2595°
Arg. of periapsis
242.9338°
True anomaly
117.15329°
Mean anomaly
117.1246°
Eccentric anomaly
117.13895°
Mean motion
3.94834 °/min
Orbital period
91.18 mins
BSTAR
-0.0047457
Loading maneuver chart data...
Computing Atmospheric mass density...
Loading historical data...
Loading historical data...
Loading historical data...
Loading historical data...
Loading historical data...
Loading historical data...
Loading historical data...

Documentation

Showing up to 5 results
|